TimeMST,TemperatureF,Dew PointF,Humidity,Sea Level PressureIn,VisibilityMPH,Wind Direction,Wind SpeedMPH,Gust SpeedMPH,PrecipitationIn,Events,Conditions,WindDirDegrees,DateUTC
12:53 AM,21.0,8.1,57,30.22,10.0,South,9.2,-,N/A,,Clear,190,2013-01-06 07:53:00
1:53 AM,23.0,8.1,53,30.18,10.0,Variable,4.6,-,N/A,,Clear,0,2013-01-06 08:53:00
2:53 AM,25.0,10.9,55,30.15,10.0,South,19.6,-,N/A,,Clear,180,2013-01-06 09:53:00
3:53 AM,28.9,10.9,47,30.11,10.0,South,13.8,25.3,N/A,,Clear,190,2013-01-06 10:53:00
5:53 AM,27.0,10.9,51,30.10,10.0,SSE,6.9,-,N/A,,Clear,160,2013-01-06 12:53:00
6:53 AM,30.0,12.9,49,30.06,10.0,SSW,25.3,31.1,N/A,,Clear,210,2013-01-06 13:53:00
7:53 AM,32.0,15.1,50,30.01,10.0,SW,25.3,33.4,N/A,,Clear,220,2013-01-06 14:53:00
8:53 AM,34.0,15.1,46,29.99,10.0,SSW,29.9,38.0,N/A,,Clear,210,2013-01-06 15:53:00
9:53 AM,37.0,16.0,42,29.96,10.0,SW,32.2,41.4,N/A,,Clear,220,2013-01-06 16:53:00
10:53 AM,37.0,17.1,44,29.94,10.0,SW,32.2,38.0,N/A,,Clear,220,2013-01-06 17:53:00
11:53 AM,37.9,18.0,45,29.88,10.0,SW,34.5,44.9,N/A,,Clear,220,2013-01-06 18:53:00
12:53 PM,37.0,19.9,50,29.88,10.0,SSW,28.8,38.0,N/A,,Clear,210,2013-01-06 19:53:00
1:53 PM,39.0,19.9,46,29.86,10.0,SW,28.8,-,N/A,,Clear,220,2013-01-06 20:53:00
2:53 PM,37.9,21.0,51,29.86,10.0,SW,24.2,32.2,N/A,,Clear,230,2013-01-06 21:53:00
3:53 PM,37.0,21.0,52,29.86,10.0,SW,21.9,-,N/A,,Clear,230,2013-01-06 22:53:00
4:53 PM,35.1,19.9,54,29.92,10.0,North,4.6,-,N/A,,Clear,350,2013-01-06 23:53:00
5:53 PM,27.0,18.0,69,29.95,10.0,SSW,5.8,-,N/A,,Clear,200,2013-01-07 00:53:00
6:53 PM,30.9,19.0,61,29.92,10.0,Calm,Calm,-,N/A,,Partly Cloudy,0,2013-01-07 01:53:00
7:53 PM,25.0,19.9,81,29.93,10.0,Calm,Calm,-,N/A,,Clear,0,2013-01-07 02:53:00
8:53 PM,24.1,17.1,75,29.94,10.0,SSE,4.6,-,N/A,,Mostly Cloudy,160,2013-01-07 03:53:00
9:53 PM,28.9,19.9,69,29.93,10.0,South,5.8,-,N/A,,Overcast,180,2013-01-07 04:53:00
10:53 PM,28.0,19.9,72,29.94,10.0,Calm,Calm,-,N/A,,Mostly Cloudy,0,2013-01-07 05:53:00
11:53 PM,24.1,19.9,84,29.96,10.0,Calm,Calm,-,N/A,,Overcast,0,2013-01-07 06:53:00